ECMWFNIL_925_spd_096.txt.gz
Wind_Speed
18 19 19 20 20 20 20 18 16 15 15 15 16 16 15 16 15 16 17 17 17 17 17 17 17 17 17 18 18 19 20 21 20 19 18 20 20 21 22 21 21 22
19 19 20 22 21 19 18 17 14 13 15 16 16 16 16 15 15 16 16 17 17 17 17 17 17 17 17 18 18 19 19 19 19 18 18 19 20 21 21 21 21 21
19 20 21 22 20 18 17 16 14 14 16 17 16 16 17 16 16 16 16 17 17 18 17 17 18 17 17 18 18 18 19 18 18 17 18 19 19 20 20 20 21 21
18 20 21 20 19 19 18 16 16 16 18 18 17 17 17 16 16 16 15 15 16 17 18 18 18 18 18 18 18 18 18 18 18 16 17 18 18 18 19 19 20 20
18 20 20 19 19 19 18 17 18 19 19 18 17 17 16 15 14 14 14 14 15 16 17 18 18 18 18 18 17 17 16 17 16 15 16 17 17 17 17 17 18 19
18 19 19 19 19 19 18 19 19 19 18 18 17 16 14 13 13 12 12 13 14 15 16 16 17 17 17 17 17 16 15 15 15 14 15 16 16 16 16 16 17 17
19 20 20 19 19 19 20 20 19 19 18 18 17 15 13 12 11 10 10 10 12 13 14 15 16 16 16 16 16 16 15 14 13 13 14 14 14 15 15 16 15 15
20 20 20 20 20 20 21 20 19 19 18 17 17 14 12 10 10 9 8 9 10 12 14 14 15 15 16 15 16 15 14 13 12 12 12 12 12 13 13 14 14 13
19 20 21 21 21 21 21 20 20 19 17 17 17 15 12 10 8 8 8 9 10 12 14 14 15 15 15 15 15 15 14 13 11 10 10 11 11 11 11 11 11 11
20 23 23 22 22 22 22 21 20 19 18 18 17 14 12 10 7 7 8 10 11 13 15 15 15 14 14 14 14 13 13 12 11 9 9 10 10 10 10 9 9 10
24 25 24 23 24 23 23 22 21 19 19 18 16 14 11 9 8 8 10 11 12 13 15 16 15 14 14 13 12 11 12 12 11 9 9 9 8 9 10 8 7 8
25 24 24 24 24 24 23 23 21 20 19 17 15 13 12 10 10 10 11 12 13 14 15 15 14 13 13 12 11 12 12 11 10 8 8 8 8 8 8 7 7 8
24 24 24 24 23 24 24 23 22 20 19 17 14 13 11 10 10 11 12 13 13 14 15 15 14 13 13 12 11 11 11 10 9 8 8 7 6 7 6 8 8 6
24 24 24 24 24 24 24 23 22 21 19 17 14 12 11 10 10 11 13 14 14 15 15 14 14 13 12 11 10 9 9 8 7 7 7 7 5 5 4 6 7 5
25 25 25 25 25 25 25 24 22 21 19 17 15 13 11 10 10 12 13 14 15 15 15 14 14 13 11 10 9 8 8 7 6 6 6 5 4 3 2 3 4 4
26 26 25 25 25 26 25 24 23 21 20 18 16 13 12 11 12 13 14 14 14 14 14 14 13 12 11 9 8 8 7 5 5 6 6 4 2 2 1 2 3 3
27 26 26 25 26 26 26 25 24 23 22 20 17 15 14 14 14 15 14 13 13 13 13 13 12 11 10 8 7 6 4 4 5 6 5 6 3 1 2 3 3 3
28 27 27 27 27 27 26 26 25 26 24 22 19 17 16 17 16 15 15 13 13 13 12 12 11 9 8 7 6 5 4 4 5 5 4 6 5 1 3 4 2 5
29 28 28 28 28 27 26 26 26 27 25 22 20 18 17 18 17 16 15 14 13 12 12 11 10 8 7 6 5 4 3 2 3 4 4 4 5 3 4 5 1 7
30 29 29 28 28 28 27 26 26 26 24 22 20 18 16 17 17 16 16 15 13 12 12 10 9 7 6 5 4 3 2 2 2 1 4 4 4 4 4 3 2 8
31 30 30 29 29 29 28 27 26 25 24 22 20 18 15 14 13 13 13 14 14 13 13 12 10 7 5 4 3 2 1 0 1 2 3 5 6 5 4 1 4 9
31 31 31 30 30 29 29 28 26 24 23 22 20 18 15 13 12 10 10 12 13 13 13 13 11 8 5 3 2 1 1 3 4 3 4 5 7 7 5 3 4 8
32 32 31 31 30 29 29 28 27 25 23 22 21 19 17 15 12 11 10 10 12 12 13 13 12 9 7 5 5 5 5 6 6 4 5 6 7 6 5 4 4 7
33 33 32 32 31 30 30 28 27 26 24 22 21 19 18 16 13 12 12 11 10 10 10 11 11 9 8 7 7 8 8 8 7 6 6 6 6 5 4 4 6 9
34 33 33 33 32 30 30 28 27 26 24 23 21 20 18 16 15 14 14 12 10 8 7 8 10 9 8 7 8 9 9 8 7 8 9 8 7 6 5 6 9 11
35 35 34 33 32 30 29 28 27 25 23 22 21 20 19 18 16 15 14 12 10 8 6 6 7 8 8 8 8 8 9 8 8 9 10 9 8 7 8 10 12 13

ECMWFNIL_925_spd_102.txt.gz
Wind_Speed
22 22 21 20 17 15 13 12 11 10 10 9 9 11 12 13 13 12 12 12 13 14 14 14 14 14 15 17 18 20 22 23 23 22 23 25 25 26 27 26 25 25
22 22 20 18 17 15 14 13 13 12 12 11 11 13 14 14 13 12 12 13 14 15 15 14 14 14 16 17 18 20 22 23 23 22 22 24 24 26 27 26 25 25
22 21 19 18 17 16 16 15 14 13 12 12 12 14 15 14 14 13 13 14 15 16 15 14 15 15 16 17 18 19 20 21 22 21 21 22 23 25 25 25 25 24
21 20 19 17 17 17 17 17 16 15 13 12 14 15 15 15 14 14 14 15 15 16 16 15 15 15 16 16 18 19 20 20 20 19 21 22 22 23 24 24 25 24
21 20 19 18 18 18 18 18 17 16 13 14 16 16 15 15 15 15 15 15 16 17 16 15 15 15 16 16 17 19 19 19 18 17 20 22 21 22 22 23 24 23
20 20 19 19 20 20 19 18 17 16 14 15 17 16 15 15 15 15 15 16 16 16 15 15 15 16 16 16 17 18 18 18 17 17 20 21 20 20 20 21 22 22
21 20 21 21 21 21 20 19 18 15 15 17 17 16 15 14 14 15 15 16 16 16 15 15 15 16 16 16 17 18 17 17 17 18 19 19 19 18 18 19 20 21
22 22 22 23 23 21 20 20 18 17 17 18 17 16 15 14 14 15 15 15 16 16 16 15 15 16 15 15 16 17 17 17 18 18 18 17 17 16 16 16 18 19
23 24 25 24 23 22 21 20 19 18 19 18 17 16 15 14 14 14 15 16 16 16 16 15 15 15 14 13 14 15 16 16 17 17 16 15 15 15 14 15 16 18
25 26 26 25 24 23 22 21 20 20 20 18 17 15 14 14 14 14 15 16 16 16 16 15 15 15 14 13 13 13 14 14 14 14 14 14 13 12 12 13 15 17
27 28 27 26 25 24 23 22 22 22 20 17 15 13 13 13 14 15 16 16 16 16 16 15 14 14 14 14 13 12 12 12 12 11 11 11 11 10 9 10 13 16
28 29 28 27 26 25 24 24 23 22 19 15 13 11 11 13 15 17 17 17 17 16 16 15 14 13 13 13 13 12 11 11 10 9 8 9 9 8 7 8 12 15
29 29 28 27 26 26 25 25 23 21 18 15 11 9 10 13 16 18 18 18 17 17 16 15 14 13 13 12 12 11 10 10 8 7 6 6 6 5 5 6 9 13
30 29 28 27 26 27 26 25 23 20 17 14 11 9 11 13 16 18 19 19 18 17 16 15 14 13 13 12 11 10 9 9 7 6 4 3 3 3 3 4 6 10
30 29 28 28 28 28 28 26 23 20 17 14 11 11 12 14 16 18 19 19 18 17 16 15 14 14 13 11 9 9 8 7 6 5 4 2 1 1 1 2 3 7
30 30 30 29 29 29 28 26 23 20 17 14 12 13 14 15 16 18 19 19 19 18 16 15 15 14 13 10 8 7 6 6 5 5 4 3 1 1 2 3 2 4
31 31 31 30 30 29 28 26 23 20 17 15 14 15 16 16 17 17 18 18 18 17 16 15 14 13 12 10 8 7 5 4 4 4 4 3 2 2 3 4 3 3
32 32 31 30 29 28 27 26 23 21 18 15 15 16 17 17 17 17 18 18 17 17 15 15 14 12 10 9 7 6 4 3 3 3 3 2 1 2 3 4 3 4
32 32 31 31 30 29 28 27 24 21 19 16 16 17 18 18 18 18 18 17 16 16 15 14 13 11 9 8 6 5 4 3 2 2 2 2 2 2 3 2 2 4
33 33 32 32 31 31 30 27 24 21 19 17 17 18 19 19 19 18 18 17 16 15 15 14 12 10 8 6 5 4 3 3 3 3 3 3 3 2 1 0 2 4
34 34 34 33 32 31 30 27 24 21 19 18 18 18 19 19 19 18 17 16 15 14 14 13 11 9 7 5 4 4 3 3 4 4 3 3 2 2 1 1 2 4
34 34 33 33 32 32 30 28 25 21 20 19 19 19 19 18 18 17 16 15 14 13 12 11 9 7 5 3 2 1 1 1 2 2 3 3 3 3 2 1 2 4
34 34 33 33 33 32 31 28 25 23 21 21 21 21 20 19 17 16 15 14 14 12 11 10 9 7 5 3 2 2 1 1 2 4 4 4 4 3 2 0 2 5
35 35 34 34 33 32 31 29 26 25 23 23 22 22 21 19 18 17 16 14 13 12 11 11 10 8 6 4 3 3 2 3 4 5 6 5 4 3 1 1 2 5
35 34 34 34 33 33 32 30 28 26 25 24 22 21 21 20 19 18 17 15 14 13 12 11 10 8 6 5 4 4 4 5 5 6 6 5 4 3 1 1 2 5
34 34 34 35 34 34 33 31 30 28 27 25 22 20 20 20 19 19 18 17 15 13 11 10 9 8 7 5 5 4 5 6 7 6 6 6 4 2 1 1 3 5

ECMWFNIL_925_spd_105.txt.gz
Wind_Speed
22 22 22 21 20 19 17 15 13 11 10 9 7 7 10 12 13 12 13 13 13 13 15 15 15 16 16 17 18 21 22 24 25 25 26 27 27 27 26 26 25 23
22 22 22 21 20 18 16 14 13 11 10 8 7 9 13 14 14 13 13 14 14 15 15 16 16 16 17 17 18 21 22 24 24 24 26 26 26 26 26 25 24 22
23 23 22 21 20 19 16 14 13 11 10 9 8 11 14 14 14 14 14 15 16 16 16 16 16 16 16 17 18 20 22 23 24 24 25 25 24 24 24 23 23 20
23 23 22 21 20 18 17 16 14 12 10 10 10 13 15 15 14 15 16 16 16 17 17 16 16 16 16 17 18 20 21 22 23 23 23 23 23 23 22 21 20 18
24 24 22 21 20 18 17 16 14 13 12 10 12 14 15 15 15 16 16 17 16 17 17 16 16 16 16 16 17 19 20 21 21 21 20 20 21 22 21 19 18 17
25 24 23 22 20 19 18 16 15 15 13 11 14 16 16 16 16 16 16 17 17 17 17 17 17 17 16 15 17 18 19 19 19 18 18 18 20 21 19 17 17 16
25 25 24 22 21 20 18 17 16 16 13 12 16 17 17 16 16 16 16 17 17 17 17 18 18 17 16 15 16 18 19 18 17 16 16 17 17 18 17 16 15 15
26 25 24 23 23 21 19 19 19 16 12 13 17 18 17 17 16 16 16 17 17 18 18 18 18 17 16 15 17 18 19 18 16 15 15 15 15 15 15 15 15 14
27 26 25 25 24 23 22 21 20 16 13 15 19 19 18 17 16 17 17 17 18 18 18 18 18 17 16 16 17 18 18 17 15 14 14 13 13 13 14 14 14 13
27 27 28 27 26 25 24 23 20 17 15 17 20 19 19 18 17 17 17 18 18 18 18 18 18 18 16 16 17 17 16 15 14 13 12 12 12 12 13 13 12 12
29 29 28 28 28 27 25 23 21 18 17 19 20 19 18 18 18 18 18 18 19 18 19 19 18 17 16 16 16 16 15 14 13 12 11 10 10 11 11 12 11 11
29 29 29 29 28 27 25 24 21 19 20 20 19 18 18 18 18 19 19 19 19 18 18 18 18 18 16 15 15 15 14 13 12 11 10 9 9 9 9 10 10 10
29 29 29 29 28 27 25 23 21 20 21 20 18 17 18 19 20 20 20 19 19 18 18 18 18 18 17 15 14 14 13 12 11 10 9 8 8 7 8 8 8 9
29 29 29 28 28 27 25 23 22 22 22 20 18 17 18 19 21 21 21 20 19 18 18 17 17 18 17 15 14 13 12 10 10 9 8 7 7 6 6 6 6 7
30 29 29 28 27 27 25 23 23 23 21 19 17 17 18 20 21 22 21 21 19 18 18 17 18 18 17 15 14 13 11 10 9 8 7 6 5 4 4 4 3 4
30 30 30 29 28 27 25 24 23 23 21 18 17 16 17 19 21 22 22 21 20 19 19 18 17 17 16 14 13 12 11 10 9 8 6 5 4 3 3 2 2 2
31 31 30 30 29 27 25 25 24 22 20 17 16 16 17 19 21 22 22 21 21 20 19 18 17 17 16 14 12 11 10 9 9 8 7 5 4 3 2 2 2 0
32 32 31 31 29 27 27 26 25 23 20 17 17 17 18 19 21 21 21 21 21 20 19 18 17 16 15 13 11 10 9 8 8 8 7 5 4 2 2 2 2 0
33 33 33 32 30 29 29 28 26 24 20 17 17 18 18 19 20 21 21 21 21 20 19 18 17 16 14 12 10 9 8 7 7 7 6 5 4 3 2 3 2 0
35 35 34 33 31 31 31 30 27 24 21 20 20 19 19 20 20 21 21 21 21 20 19 18 16 15 13 11 10 9 7 7 6 6 6 5 4 3 3 3 2 1
36 36 36 35 34 33 32 30 27 25 23 23 21 20 21 21 21 21 22 21 20 20 19 18 16 14 12 10 9 8 7 6 6 6 6 6 5 5 4 3 2 2
35 36 36 35 35 35 33 31 29 27 26 23 21 21 22 22 21 22 22 21 20 20 19 17 15 13 11 9 8 7 7 7 7 6 6 6 6 6 5 4 2 2
35 36 36 35 36 35 34 32 31 29 26 22 22 23 23 22 22 22 22 21 21 20 19 17 15 13 11 9 8 7 7 7 7 7 7 7 7 7 5 4 2 2
37 38 37 37 37 35 34 33 32 29 25 22 23 24 24 23 23 23 22 21 21 20 18 17 16 14 12 10 8 7 7 8 8 8 8 8 8 7 5 3 2 1
37 38 37 37 37 35 34 33 32 28 25 23 24 24 24 24 23 23 23 21 20 19 17 16 16 14 11 9 8 7 8 9 9 9 9 8 7 6 5 4 2 1
36 37 36 36 36 35 35 34 32 28 25 24 25 25 25 25 24 23 23 21 20 18 16 15 14 13 10 8 8 9 10 10 10 9 9 8 7 6 5 4 2 1

ECMWFNIL_925_spd_108.txt.gz
Wind_Speed
20 22 24 24 24 23 18 17 18 15 10 8 7 7 8 10 10 11 10 11 11 11 11 11 11 11 11 11 12 11 11 11 11 11 11 12 12 12 12 12 11 12
20 24 27 26 24 23 20 19 18 14 11 9 8 8 10 12 12 12 12 12 12 12 12 11 11 11 11 11 11 11 11 10 10 11 12 12 12 11 12 12 12 12
23 26 27 26 24 23 22 21 18 15 13 10 9 10 12 12 13 12 12 13 12 12 12 11 11 11 11 11 11 10 10 10 10 11 11 11 10 10 10 11 11 11
25 27 27 25 24 24 23 21 19 17 14 11 11 12 13 13 13 13 13 13 13 13 12 11 11 11 11 11 10 10 10 10 10 10 11 11 10 10 10 10 10 10
25 26 26 25 24 24 22 20 19 17 14 12 12 13 13 14 14 14 14 13 13 13 12 12 11 11 11 10 10 10 10 10 10 10 10 10 9 9 9 9 9 9
24 25 25 25 25 24 22 21 19 16 14 13 14 14 14 14 14 14 14 14 13 13 13 12 11 11 10 10 10 10 9 10 10 10 10 10 9 9 8 8 8 8
25 25 25 26 26 24 23 21 18 15 14 14 14 15 15 15 14 14 14 14 14 13 13 12 12 11 10 10 10 10 10 10 10 10 10 10 9 9 8 8 8 9
26 27 26 27 26 25 23 20 17 16 14 14 15 15 15 15 15 14 14 14 14 13 13 13 12 11 10 10 11 11 11 10 10 10 9 9 9 9 8 8 8 8
27 28 28 28 27 26 23 18 17 16 14 14 15 15 14 14 14 15 14 14 14 14 13 13 12 11 10 11 12 12 11 10 10 9 9 9 8 8 8 8 8 7
28 28 29 29 28 25 20 18 18 15 14 14 15 15 14 14 14 14 14 14 14 14 14 13 12 11 10 11 12 11 11 11 10 9 8 8 8 8 8 7 7 6
29 29 31 29 25 21 19 19 18 15 14 15 15 15 15 14 14 14 14 14 14 14 14 14 12 11 11 11 11 11 11 10 10 9 8 8 8 8 7 7 6 6
29 29 29 25 21 19 20 20 17 15 14 15 15 16 15 15 15 14 14 15 14 14 14 14 13 12 11 11 11 11 10 10 9 9 8 8 7 7 6 6 6 5
26 26 24 21 20 20 21 19 17 15 15 15 15 15 15 15 15 14 14 14 14 14 14 14 13 12 11 11 11 11 10 9 9 8 8 7 6 6 6 5 5 5
24 23 21 21 21 21 21 20 17 15 15 15 14 13 13 13 14 14 14 13 14 14 13 13 13 12 12 11 11 11 10 9 9 8 7 6 6 5 5 4 4 4
22 21 20 22 22 22 24 22 18 16 16 15 13 12 12 11 12 13 14 13 13 13 13 13 13 12 12 12 11 10 10 9 8 8 7 6 6 5 4 3 3 3
22 21 21 23 22 24 28 26 21 19 18 16 14 12 11 11 11 11 13 13 13 13 13 13 12 12 13 14 13 11 10 8 8 7 6 6 5 5 4 3 3 2
23 22 22 23 23 24 28 27 24 21 18 17 15 13 11 11 10 9 10 12 13 13 13 13 11 12 15 17 15 13 11 8 8 7 6 6 5 5 4 4 3 3
25 24 23 22 22 22 25 26 24 20 19 20 19 17 15 14 14 12 10 11 13 13 13 13 11 13 17 16 15 15 13 9 7 7 7 6 6 5 4 4 4 3
27 25 23 22 22 25 27 26 23 22 23 25 22 19 18 18 18 16 13 12 13 13 14 13 12 16 18 17 15 15 14 10 8 8 8 7 6 5 4 4 4 3
29 25 24 23 26 31 30 26 26 27 28 26 22 19 17 17 18 17 15 14 13 13 13 12 13 18 19 17 15 15 14 12 8 7 8 6 6 5 4 4 4 2
26 25 25 23 26 30 29 27 29 29 26 23 20 18 19 18 17 16 15 15 14 14 13 12 14 19 19 18 16 14 14 11 6 6 7 6 6 6 5 5 4 3
23 25 24 22 22 24 23 23 26 26 23 20 17 16 17 17 16 15 16 16 14 14 13 12 15 19 19 17 16 14 13 10 6 7 8 7 7 7 6 6 4 3
23 25 25 24 24 23 21 21 22 21 20 18 16 15 15 15 15 15 16 16 16 15 13 12 16 20 18 17 16 14 13 10 8 8 9 8 8 8 7 6 5 4
27 27 28 29 28 25 23 23 22 21 20 18 17 16 15 15 15 14 15 16 16 15 14 13 16 20 19 17 16 15 13 11 9 9 9 8 9 8 7 6 5 5
32 31 31 33 31 27 26 28 28 25 23 19 16 15 14 14 14 14 14 15 14 15 14 13 15 19 19 17 16 16 14 11 9 9 9 9 9 9 7 6 6 5
35 35 35 35 33 31 31 33 31 27 23 18 15 13 13 13 14 14 14 14 13 14 14 13 14 18 19 17 16 16 15 13 9 9 10 10 9 9 8 7 7 6

ECMWFNIL_925_spd_111.txt.gz
Wind_Speed
21 21 22 21 20 20 19 17 17 16 13 11 10 9 8 8 9 10 9 9 9 10 10 10 10 10 10 10 11 10 10 10 10 10 10 10 9 8 8 8 8 8
22 23 24 22 21 20 19 18 18 16 13 11 10 9 8 9 11 11 11 10 11 11 10 10 10 10 10 10 10 10 10 10 10 10 10 9 8 8 8 9 9 8
24 26 25 23 22 20 18 17 17 16 12 10 10 9 9 11 12 12 11 11 12 11 11 11 10 10 10 10 10 10 10 10 9 9 8 8 7 7 8 8 8 8
25 26 25 22 23 22 19 18 18 16 13 11 11 11 11 13 14 13 13 12 12 12 11 11 10 10 11 10 10 10 10 9 9 8 8 7 7 7 8 8 8 7
25 25 24 22 24 23 21 20 19 17 14 12 12 13 13 15 15 14 13 13 12 12 12 11 11 11 11 10 10 10 9 9 8 8 7 7 7 7 7 7 7 6
25 24 23 22 24 24 22 21 19 17 14 13 13 14 15 16 15 15 14 14 13 13 12 12 12 11 10 10 10 9 9 8 8 8 8 8 7 7 7 6 6 5
26 23 23 24 24 24 23 21 19 16 14 14 14 14 16 16 15 15 15 14 14 13 13 12 12 11 11 10 10 9 9 9 8 8 8 8 7 7 7 6 6 6
25 22 24 27 25 23 24 22 19 16 15 14 14 15 16 15 15 15 14 14 14 13 13 12 12 11 11 10 10 10 9 9 8 8 8 8 8 7 7 6 6 6
26 22 23 26 25 24 24 21 18 16 15 14 15 15 15 15 15 15 14 14 14 13 13 12 12 11 10 10 10 10 10 9 8 8 8 8 7 7 7 6 6 5
24 24 23 24 26 26 23 21 19 16 15 14 15 15 15 15 14 14 15 14 14 14 13 13 12 11 11 11 11 11 10 9 9 8 8 7 7 7 7 6 5 4
22 23 25 26 28 26 23 21 19 16 15 15 15 16 15 15 15 15 15 14 14 14 14 13 12 12 12 12 12 11 10 10 9 9 8 7 7 7 6 5 5 4
23 23 27 29 28 25 22 21 19 16 15 15 15 16 15 15 15 14 14 14 14 14 14 13 12 12 12 12 12 12 11 11 10 9 9 8 7 7 6 5 4 4
23 24 30 31 28 25 23 21 19 16 15 15 16 15 15 15 14 13 13 13 13 13 13 12 12 12 12 12 12 12 11 11 11 10 9 8 7 7 6 5 5 4
24 26 32 31 27 25 24 21 19 16 15 16 16 15 15 15 14 13 12 12 12 12 12 12 12 12 12 12 12 12 12 11 11 11 10 9 8 7 6 5 5 4
25 27 29 27 25 24 23 21 19 16 16 17 16 16 15 14 14 13 12 11 11 10 10 10 10 10 12 13 13 12 12 11 11 10 10 9 8 8 7 6 6 5
27 27 27 25 24 24 23 22 20 17 17 18 17 17 16 15 16 15 12 12 13 12 11 11 9 10 13 15 14 13 12 11 11 10 9 9 9 8 8 7 6 6
27 28 26 25 25 24 23 23 21 19 18 18 18 18 17 18 19 19 16 16 16 15 16 16 13 13 15 17 16 15 13 10 10 10 9 8 8 8 8 7 7 7
26 26 26 25 25 24 24 26 24 21 19 19 20 20 19 20 21 21 19 18 15 15 16 15 13 13 16 18 17 16 14 10 9 9 8 8 8 8 8 7 7 6
26 25 26 27 26 25 27 28 26 21 19 20 20 19 18 18 18 18 18 16 15 15 15 14 13 14 16 19 20 18 15 10 8 8 8 7 8 7 6 6 7 6
27 26 27 27 26 26 29 27 23 21 20 20 20 19 18 17 16 16 16 15 15 15 15 14 14 14 16 19 21 20 17 11 5 6 8 7 7 6 5 5 6 6
26 26 26 26 25 27 28 24 21 21 21 20 19 19 18 16 15 15 15 15 15 15 15 14 14 15 16 19 21 20 20 13 4 4 8 7 6 6 6 6 6 5
25 26 26 25 26 27 26 23 21 21 20 20 19 18 16 15 15 16 16 16 16 15 15 14 14 15 17 20 19 19 20 15 5 4 7 6 6 7 7 7 7 6
25 26 26 25 26 26 25 23 22 21 20 20 19 17 17 16 16 16 16 16 16 16 15 13 13 17 20 20 19 18 18 14 7 6 7 7 8 8 8 8 8 7
24 24 25 25 26 26 24 22 22 21 20 19 18 17 17 16 16 16 15 16 16 16 15 13 13 18 21 20 19 18 17 13 9 8 8 8 8 9 8 8 9 10
23 23 23 24 24 24 24 23 23 21 20 19 17 16 16 15 15 14 14 15 15 14 14 13 13 19 22 20 20 20 18 14 10 8 9 9 8 9 9 8 8 11
23 24 24 24 24 24 24 23 22 21 21 20 17 15 15 15 14 13 13 13 13 13 14 12 13 19 23 21 20 20 19 16 11 8 8 9 9 9 10 9 8 9

ECMWFNIL_925_spd_114.txt.gz
Wind_Speed
26 25 23 23 22 21 21 20 18 18 15 13 14 13 11 10 9 9 8 8 8 9 10 11 12 12 12 12 12 13 13 13 14 12 13 14 13 13 13 12 12 11
27 25 24 24 23 22 22 20 19 18 16 15 15 13 11 12 11 10 10 9 9 10 11 11 12 12 12 12 12 13 14 14 14 13 13 13 12 13 13 12 11 10
27 25 24 24 24 24 23 20 19 19 16 16 16 13 12 14 12 11 11 10 10 11 11 11 11 11 12 12 13 14 14 14 14 13 13 13 12 12 12 11 10 9
27 27 25 24 25 25 24 22 20 19 18 17 17 13 12 13 13 12 12 11 12 12 12 12 12 12 13 13 14 14 14 14 13 13 13 12 11 11 10 10 9 9
27 28 26 24 25 26 25 23 21 20 19 18 15 13 13 13 14 14 13 13 13 12 12 12 12 13 13 13 14 14 14 14 12 12 12 11 10 10 9 9 9 9
27 28 27 25 26 26 26 24 21 20 20 19 16 14 15 14 14 15 14 14 13 13 13 13 13 13 13 13 13 13 13 13 12 11 11 11 10 9 8 8 8 8
27 29 28 27 27 27 26 23 21 20 20 20 17 15 15 16 16 16 15 14 14 14 13 13 13 13 12 13 13 12 12 12 12 11 11 11 10 9 8 8 8 8
29 30 29 28 27 26 26 24 22 21 20 19 17 15 16 17 17 17 16 15 15 14 14 13 13 13 13 12 12 12 12 12 11 11 11 11 10 9 9 9 9 9
29 30 29 28 27 25 25 24 23 22 20 19 18 17 17 17 18 18 17 16 15 15 14 14 13 13 12 12 12 13 12 12 11 11 11 10 10 10 9 9 9 8
30 30 28 27 26 26 26 25 24 23 21 19 18 19 19 18 18 18 17 17 16 15 15 14 14 13 12 12 12 12 12 12 11 11 10 10 10 10 9 8 8 8
30 30 29 27 27 28 28 27 25 23 21 20 20 20 19 19 19 18 18 17 16 16 15 14 14 13 13 13 13 12 12 12 12 11 10 10 10 9 9 8 8 7
30 30 30 27 28 30 29 28 26 24 22 21 21 20 20 20 20 19 18 18 17 16 15 14 14 13 13 13 13 12 12 12 12 11 10 10 10 9 8 8 8 7
29 30 30 29 30 31 29 28 26 24 22 21 21 21 21 21 20 19 19 18 17 17 16 15 15 14 13 13 12 12 12 12 12 11 10 10 10 9 8 8 7 6
30 29 30 31 32 31 29 28 26 24 22 21 22 21 21 21 21 20 20 19 18 18 17 16 16 15 14 13 13 13 12 12 11 11 11 10 10 9 8 8 7 6
30 28 30 32 32 31 30 28 26 24 22 22 22 22 22 21 21 21 21 20 20 20 19 19 18 18 17 16 16 16 15 13 12 12 11 11 10 9 8 8 7 7
29 29 30 32 33 32 30 28 26 24 23 22 22 22 22 22 21 21 21 22 22 23 22 22 21 20 20 19 17 16 16 14 13 12 11 11 10 10 9 8 8 8
28 29 32 34 33 32 31 29 26 25 24 23 23 22 22 23 24 23 22 24 26 25 23 23 21 20 20 19 18 17 16 15 14 13 12 12 11 10 10 9 9 9
27 30 34 35 33 31 31 29 26 25 25 24 24 24 24 25 25 23 22 26 28 25 22 22 21 19 20 20 19 19 18 15 14 13 12 12 11 10 10 10 9 8
27 30 33 33 32 32 31 28 26 25 25 25 24 24 25 25 25 22 21 25 26 22 20 20 20 19 20 20 20 20 19 16 14 13 13 12 11 11 11 12 12 9
28 29 31 32 32 32 31 28 26 25 24 24 25 25 26 25 23 21 22 23 22 20 19 19 18 19 21 21 21 20 19 16 12 12 13 12 11 11 10 11 11 10
29 29 30 31 33 33 31 28 27 27 25 24 25 25 25 24 22 22 23 22 19 18 19 18 18 19 20 22 23 21 21 17 10 9 13 12 10 10 10 9 9 8
30 30 30 32 33 32 31 29 28 27 25 25 25 24 24 24 22 22 22 21 19 18 19 18 18 20 20 21 24 24 23 19 10 7 10 12 10 9 9 9 9 9
31 31 30 31 32 31 30 29 28 27 25 26 26 24 23 23 22 21 21 20 20 19 18 17 19 21 20 20 23 26 26 21 12 6 8 10 9 9 9 10 10 10
31 31 31 31 31 30 30 29 28 27 27 27 27 25 23 22 22 21 20 20 20 20 17 17 19 21 19 18 22 26 27 22 12 7 7 9 10 10 10 11 11 12
30 30 31 32 31 31 32 31 29 28 28 26 26 25 23 22 22 21 20 20 20 19 16 16 20 21 19 18 21 25 27 22 13 9 9 10 11 11 11 11 13 14
29 30 31 32 31 31 32 31 29 29 28 26 24 23 22 21 21 20 20 19 19 18 16 15 18 20 20 20 20 23 26 23 15 11 11 11 12 12 12 12 13 14

ECMWFNIL_925_spd_117.txt.gz
Wind_Speed
29 32 32 31 31 31 30 29 28 26 25 23 20 20 19 16 14 15 15 14 13 14 15 14 14 15 15 15 15 16 16 16 17 16 17 17 17 16 15 15 14 15
30 32 32 31 30 29 28 28 29 27 24 22 20 18 17 15 15 16 16 15 14 14 15 15 15 15 16 15 15 16 16 16 17 16 16 17 17 16 15 14 14 14
31 33 32 31 30 29 28 28 29 27 24 21 20 18 17 16 17 18 17 16 14 15 16 16 16 15 15 15 15 16 17 17 17 16 16 17 16 16 15 15 14 13
32 33 32 31 30 30 29 29 29 26 24 22 20 18 19 20 19 18 16 14 14 15 16 16 15 15 15 16 17 18 18 17 17 17 17 18 16 16 15 14 14 15
33 32 32 31 31 31 30 30 29 27 25 23 21 20 22 23 20 17 16 14 15 17 17 16 16 16 17 17 18 18 18 17 17 16 17 17 15 15 15 14 16 16
33 32 32 31 31 31 31 30 29 27 26 24 22 22 23 22 19 18 17 17 18 18 18 17 17 17 18 18 17 18 17 17 16 15 16 16 16 15 15 14 15 15
33 32 32 31 32 32 31 30 29 27 26 26 24 21 22 21 19 18 18 18 19 19 19 19 18 18 18 17 18 18 16 15 15 15 16 17 16 14 13 12 13 14
34 33 32 32 33 33 31 30 29 28 28 27 24 22 22 21 20 19 18 19 20 19 19 19 18 18 18 18 18 18 17 15 15 15 17 17 15 14 12 11 12 12
34 33 33 34 34 33 31 30 30 29 29 27 24 24 22 20 20 21 19 19 20 20 20 20 19 18 18 18 18 18 18 16 14 15 17 17 16 15 13 12 11 12
35 33 34 35 35 33 32 31 31 31 30 27 24 24 22 21 21 21 20 20 21 21 20 20 20 19 18 18 18 19 18 16 15 16 16 15 15 14 13 11 11 12
35 35 34 36 35 34 33 32 32 32 30 27 24 23 23 23 23 22 21 22 22 21 21 21 21 20 19 19 19 18 17 16 16 15 14 14 13 13 12 11 11 11
36 35 35 36 35 34 34 34 33 32 30 28 26 25 25 25 25 23 22 23 23 22 22 22 21 21 20 19 19 18 16 16 15 15 15 14 13 13 12 11 10 10
37 36 35 35 35 36 35 34 32 32 31 30 28 27 27 27 26 24 24 24 23 23 23 22 22 21 20 20 20 18 17 16 16 16 16 15 14 13 12 11 10 10
36 36 36 35 35 36 35 33 33 32 31 30 28 27 28 28 26 26 25 24 23 23 23 22 22 22 21 21 21 19 18 18 17 17 17 16 14 13 12 11 10 9
35 36 36 35 35 36 35 34 33 32 31 29 28 28 28 27 26 27 26 25 25 24 23 22 23 23 22 23 22 20 19 19 17 17 16 16 15 14 12 11 10 9
35 35 36 35 36 35 35 34 33 32 31 30 28 29 28 27 27 27 27 27 26 26 25 25 24 24 24 23 21 20 20 19 18 17 17 16 16 15 13 12 11 9
35 36 36 35 35 35 35 34 33 32 31 30 29 29 29 29 29 28 28 28 28 28 28 27 27 26 24 20 19 20 20 19 18 17 17 16 15 15 14 13 11 9
36 36 36 35 35 35 35 34 33 32 31 30 30 30 30 29 29 30 29 29 30 30 29 28 28 26 21 18 20 21 19 18 18 17 17 16 15 14 14 13 12 9
37 37 35 35 35 35 35 34 33 32 32 31 31 31 31 30 30 31 29 29 31 31 29 29 26 21 18 19 21 21 18 18 18 17 16 16 15 14 13 13 13 11
37 36 35 34 34 34 34 34 33 32 32 32 32 32 32 30 31 31 30 29 31 31 29 27 22 19 19 21 20 20 19 19 17 16 15 15 14 14 13 14 14 13
36 35 35 35 34 34 34 34 33 32 32 32 33 33 32 31 31 31 30 29 30 30 27 24 20 20 22 22 21 20 20 19 17 17 16 14 14 14 14 15 17 15
36 35 35 35 35 34 33 33 33 32 32 33 33 32 31 31 30 30 30 29 29 28 26 22 21 23 23 22 22 21 22 20 16 16 18 16 14 14 13 14 16 14
36 36 35 35 35 35 33 32 31 32 33 33 33 31 30 30 30 29 28 28 28 26 25 23 23 24 24 23 23 21 23 22 16 16 18 17 14 14 14 15 15 14
37 38 37 36 35 35 34 32 31 33 34 35 35 34 32 31 31 29 28 28 26 25 24 24 24 24 23 24 23 22 23 23 19 15 15 14 13 14 15 14 13 14
37 38 38 38 36 35 33 32 32 34 35 35 35 34 31 30 30 29 29 28 26 24 24 24 24 24 23 24 24 23 24 25 22 17 14 12 12 13 13 13 14 15
36 38 38 38 37 34 33 33 33 33 34 33 32 32 31 30 29 29 29 28 26 25 24 24 24 24 25 25 23 24 26 28 27 22 17 13 13 13 14 14 15 17

ECMWFNIL_925_spd_123.txt.gz
Wind_Speed
36 37 36 35 35 35 36 35 33 31 32 32 31 30 28 26 24 22 20 18 16 14 15 15 15 15 15 14 14 14 14 14 14 14 14 14 13 12 12 11 11 12
37 36 35 35 35 35 35 36 35 33 33 33 32 30 28 26 24 22 20 18 16 15 15 16 16 15 15 14 14 14 14 14 14 14 14 14 13 12 12 11 11 11
37 36 36 36 35 35 35 37 36 34 34 34 33 31 29 27 25 23 20 19 17 16 16 16 16 15 14 14 13 14 14 14 14 14 14 14 13 13 12 12 11 11
37 37 37 36 36 35 35 36 35 34 35 35 33 31 29 27 25 23 21 19 18 17 17 16 16 15 14 13 13 13 13 13 14 15 15 14 14 13 13 12 12 11
37 36 36 36 36 35 35 36 35 34 35 34 33 31 29 28 26 24 22 20 18 18 17 17 16 15 14 14 13 13 14 14 14 15 15 15 14 13 13 13 13 13
36 36 36 36 36 36 36 35 35 35 35 34 33 31 30 29 27 25 23 21 20 19 18 17 17 16 15 15 14 14 15 15 16 16 16 16 15 14 14 14 15 15
36 36 37 36 36 36 36 35 35 35 35 34 33 32 31 30 28 26 24 22 21 20 19 18 18 17 17 16 15 16 16 17 17 17 17 16 16 16 15 15 16 17
37 37 37 36 36 36 35 35 35 34 34 34 34 33 32 31 29 27 25 23 22 21 20 19 18 18 18 17 17 17 18 18 18 18 18 18 18 17 17 18 19 19
37 37 37 37 36 36 35 35 34 34 34 34 35 34 33 31 30 28 26 24 23 22 21 19 19 19 19 19 18 19 19 20 19 19 19 19 19 20 20 21 21 21
37 37 38 37 36 36 35 35 35 34 34 35 35 34 34 32 30 28 26 25 24 23 22 20 20 20 20 20 19 19 20 21 21 20 20 20 20 21 22 22 21 21
36 37 38 39 38 36 35 35 35 35 35 35 35 35 34 33 31 29 27 26 26 24 23 21 21 21 21 21 20 20 20 21 21 21 21 21 21 22 22 21 21 21
36 37 38 39 38 37 36 36 35 35 36 36 35 35 35 34 32 30 28 27 26 25 23 22 22 22 22 21 21 21 21 21 21 21 22 22 22 21 20 20 20 19
37 38 38 38 38 37 37 36 35 35 36 36 36 35 36 35 33 31 29 28 27 25 24 23 23 23 22 22 22 22 22 22 22 22 23 22 21 20 20 20 19 18
38 37 37 37 37 37 37 36 36 36 37 37 36 36 36 36 34 32 30 29 27 26 24 24 24 24 24 23 23 23 23 23 23 23 23 22 21 20 19 20 19 17
37 36 36 37 36 37 37 36 36 37 38 37 37 37 37 36 34 32 31 30 28 26 25 25 25 25 24 24 24 24 24 23 23 23 23 22 21 20 19 19 18 17
36 36 36 36 36 37 38 38 37 37 38 37 37 37 37 35 34 33 32 31 29 27 26 26 26 25 25 24 25 25 24 23 23 24 23 22 22 20 20 19 18 16
35 35 36 37 36 37 38 39 39 38 38 37 37 37 37 36 35 35 33 32 30 29 28 27 27 26 25 25 25 25 25 25 24 24 24 22 21 21 21 20 18 15
35 35 36 37 37 37 38 39 37 36 37 37 37 37 37 37 36 35 34 32 31 29 28 28 27 26 25 26 26 26 25 25 25 24 24 23 21 21 21 20 18 16
35 35 35 36 37 37 38 38 36 35 36 38 39 39 37 36 35 34 34 33 31 30 29 29 27 27 26 27 27 26 26 26 25 24 24 23 22 22 22 21 18 16
34 35 36 36 37 37 37 37 37 37 38 40 40 39 36 34 35 36 35 33 32 31 30 30 28 27 27 27 27 27 27 26 25 24 25 24 23 24 23 20 18 16
34 35 35 36 37 37 37 37 39 40 41 41 41 39 37 37 38 38 36 34 34 33 32 31 30 29 28 28 28 28 27 27 25 25 25 24 24 24 22 20 18 16
36 35 36 37 38 38 37 37 39 40 40 41 40 38 37 38 39 39 37 36 35 34 34 33 31 30 29 28 28 28 28 27 25 24 24 25 25 23 21 19 17 16
37 37 35 36 38 38 38 39 40 40 40 40 38 35 35 37 39 38 37 37 36 36 35 34 33 31 30 30 29 29 29 28 25 25 25 25 24 23 22 20 17 16
37 37 37 37 38 39 40 42 42 42 42 42 39 37 37 39 39 38 36 36 37 37 36 35 34 33 32 31 30 31 31 28 26 26 27 25 23 23 22 20 18 17
36 36 36 38 40 41 42 42 42 42 39 37 36 36 36 36 35 35 35 35 35 36 36 35 34 33 33 32 31 32 31 28 26 28 28 26 25 24 23 20 19 20
35 34 34 38 43 44 42 39 37 34 30 30 32 32 32 32 34 35 34 33 33 34 35 35 34 33 34 34 32 33 32 28 27 29 29 27 26 26 24 22 21 21

ECMWFNIL_925_spd_129.txt.gz
Wind_Speed
30 31 33 30 26 26 28 26 23 22 23 22 21 21 26 29 28 25 24 22 21 21 21 20 19 17 15 14 12 11 11 12 12 13 13 14 15 15 16 17 19 19
33 34 34 32 27 25 30 31 25 23 25 25 22 24 28 29 28 26 24 23 23 23 22 20 19 17 15 13 11 10 11 12 12 12 12 13 14 15 15 15 16 17
38 38 38 35 29 26 31 31 27 28 31 31 29 29 31 29 28 27 25 24 24 23 22 20 18 17 15 13 11 11 12 12 11 11 11 13 13 14 14 14 14 14
40 41 40 36 29 26 29 29 30 33 34 34 34 33 31 30 29 27 26 26 25 24 23 21 18 17 15 13 12 12 12 12 11 11 11 12 13 13 13 13 13 13
40 41 39 34 28 26 27 28 32 37 35 34 35 33 32 31 29 29 28 27 26 25 23 21 19 18 16 14 13 13 13 12 11 11 11 12 13 13 13 13 14 14
38 40 38 32 28 28 27 26 31 37 37 35 35 33 33 32 30 30 29 28 27 26 24 22 20 19 17 15 14 14 13 12 11 11 11 13 14 14 15 15 15 14
35 39 37 31 29 29 27 25 30 38 38 36 35 34 33 32 31 31 30 29 28 26 25 23 21 20 18 16 15 14 13 12 11 11 13 14 15 16 16 16 15 15
34 35 32 30 29 28 27 26 29 38 39 36 36 35 34 33 32 32 31 30 29 27 26 24 22 20 18 17 16 14 13 12 12 12 14 16 17 17 17 16 16 15
32 31 30 31 30 28 29 26 28 37 40 36 36 35 35 34 33 33 32 31 30 28 27 25 23 21 19 17 16 14 13 13 13 14 16 17 18 18 18 17 16 16
32 32 32 33 31 29 30 27 28 37 40 37 37 36 35 36 34 33 33 31 31 29 28 26 24 22 20 18 16 14 13 13 14 15 16 18 18 19 18 18 17 17
34 33 33 34 31 29 31 29 28 36 40 38 37 37 36 36 35 34 33 32 32 31 29 27 25 23 21 19 17 15 14 14 15 16 17 18 19 18 18 18 18 18
35 34 34 34 33 30 31 29 28 35 40 38 37 38 37 37 36 36 35 33 33 32 30 28 26 24 22 19 18 16 15 15 16 17 18 18 18 18 18 18 18 18
36 34 33 35 35 31 29 28 28 33 37 37 37 37 37 38 38 37 36 34 33 32 30 28 26 24 22 20 18 17 17 17 17 18 18 19 19 19 18 18 18 18
38 34 32 35 35 31 29 29 28 29 33 37 37 37 38 39 38 38 37 35 34 33 30 28 26 24 23 21 19 18 18 18 18 19 19 19 19 19 19 19 18 18
39 33 31 34 34 31 34 35 30 29 34 37 37 37 38 38 39 39 37 36 35 34 32 30 27 25 23 22 21 20 19 19 20 20 20 20 20 20 19 19 19 18
38 32 29 35 36 33 36 39 37 35 36 37 38 38 38 38 39 39 38 37 36 35 33 31 28 26 24 22 21 20 20 21 21 21 21 21 22 21 21 20 20 19
37 31 29 37 38 32 34 41 41 39 38 37 37 38 38 39 39 39 38 38 37 37 35 32 29 26 24 22 21 19 20 22 23 23 23 22 22 22 22 22 21 19
33 27 27 36 35 28 33 41 41 39 38 37 38 38 37 38 39 39 39 38 38 38 36 33 30 27 25 23 22 20 20 22 23 24 24 23 23 23 23 23 21 20
31 26 28 33 31 27 34 41 40 39 39 38 38 37 36 38 39 39 40 39 39 38 36 33 31 28 26 24 22 22 21 22 24 25 24 24 24 24 23 23 22 22
33 29 29 32 31 31 37 41 40 39 39 40 39 36 35 38 39 40 40 40 40 38 36 34 32 29 27 25 23 23 23 23 24 24 24 25 24 24 24 24 23 23
35 32 32 34 35 34 37 41 40 35 33 37 38 37 38 39 39 40 41 40 40 39 37 36 34 30 27 26 25 24 24 24 24 24 25 24 24 24 24 24 24 24
35 34 33 34 36 35 36 39 37 30 28 34 38 36 37 39 40 41 42 41 40 40 39 38 35 31 29 27 26 25 25 25 25 25 25 25 25 25 24 24 24 24
34 34 34 34 36 36 36 38 38 32 29 33 36 34 34 37 39 39 39 40 41 41 40 38 35 33 31 29 27 27 27 27 27 26 26 26 26 25 25 25 25 23
33 34 34 35 36 36 35 36 38 37 35 36 35 33 35 39 40 36 34 37 41 41 39 38 37 36 33 31 29 29 30 30 29 29 29 27 26 26 25 25 25 22
33 34 35 35 35 35 35 35 35 35 37 38 36 33 35 38 38 36 34 35 38 40 40 39 38 37 35 33 31 30 31 32 31 31 30 29 28 27 26 26 25 22
33 35 35 36 36 35 36 36 36 35 35 36 36 35 35 33 32 32 34 36 38 39 41 41 39 37 36 34 33 32 32 33 33 32 31 29 28 27 27 27 27 24

ECMWFNIL_925_spd_132.txt.gz
Wind_Speed
30 28 28 28 28 28 27 27 28 26 26 28 28 24 23 24 24 24 24 22 20 20 19 18 18 18 16 15 15 13 12 12 12 13 13 14 15 14 14 14 15 15
32 28 27 28 29 29 27 27 28 26 27 29 27 23 23 24 24 25 25 23 20 21 20 19 19 18 17 16 15 14 13 12 12 11 12 13 13 13 14 15 15 16
34 31 29 28 29 29 28 28 29 27 27 29 26 23 23 24 25 26 26 24 22 21 20 19 19 18 17 16 15 14 13 12 12 11 11 12 12 12 13 13 14 15
35 34 32 29 28 28 28 29 30 28 27 28 26 24 24 25 26 26 26 25 23 22 20 19 19 19 18 17 15 14 13 12 11 11 11 11 11 11 11 11 12 12
36 36 34 30 27 27 28 30 31 30 28 27 26 25 25 26 26 25 26 25 23 22 21 20 20 20 18 17 16 14 13 12 12 12 11 11 11 11 11 11 11 11
36 37 34 31 30 28 28 30 30 30 29 28 27 27 27 27 26 26 26 25 24 22 22 21 21 20 18 17 16 15 14 13 12 12 12 11 11 11 11 11 11 12
35 36 35 32 31 29 30 30 30 30 31 30 30 30 29 27 25 25 25 25 24 23 22 22 21 20 19 18 17 15 14 13 12 13 12 11 11 12 12 12 12 12
35 35 34 32 32 32 33 30 28 31 32 31 32 31 29 27 25 24 24 24 24 23 22 22 21 21 20 20 18 16 15 14 13 13 13 12 12 12 12 12 12 11
33 32 32 33 33 34 35 30 28 32 33 32 33 32 28 26 25 24 24 24 23 23 23 22 21 21 22 21 19 17 17 16 14 13 13 13 12 13 13 13 12 12
33 32 32 34 33 34 34 30 28 32 34 33 33 30 27 26 24 24 25 25 24 23 23 22 22 21 23 22 20 19 18 16 14 13 13 14 13 14 14 14 14 13
35 35 34 34 35 35 33 31 30 30 32 35 33 29 27 26 25 24 25 25 25 24 23 23 23 23 23 22 20 20 18 15 15 14 14 14 14 15 15 15 15 14
35 35 36 35 35 34 33 33 33 31 33 35 33 29 27 26 26 25 25 25 25 25 24 23 23 23 24 23 23 22 19 16 15 15 14 15 15 15 16 15 15 14
35 36 37 36 35 34 33 35 35 34 35 36 32 29 27 27 27 26 25 26 25 24 24 24 23 23 23 24 24 22 19 17 16 16 15 15 15 15 15 15 15 14
36 37 37 35 35 35 34 35 35 34 35 35 32 30 28 28 28 27 26 26 24 25 25 23 24 24 24 26 25 22 20 18 17 17 16 16 15 15 15 15 15 14
33 35 35 34 35 35 34 35 36 34 34 34 32 30 28 27 28 27 27 26 24 25 25 24 26 28 29 29 26 21 20 19 17 17 17 16 16 15 15 15 15 14
32 33 34 34 34 33 34 36 37 36 36 34 32 30 27 26 27 27 27 28 26 25 25 27 31 33 32 32 29 24 21 18 17 17 17 16 16 16 16 15 15 14
31 31 34 35 33 32 34 36 37 37 37 34 31 31 27 25 27 27 27 28 27 26 28 32 35 35 32 32 32 28 23 19 17 17 17 17 17 17 16 16 16 14
30 31 34 35 32 31 32 35 37 38 37 34 32 32 29 26 27 26 26 28 28 27 31 35 36 36 34 33 33 31 25 20 18 18 18 18 18 17 17 16 17 15
31 32 34 34 30 28 32 37 39 39 37 34 32 32 29 26 26 26 26 29 30 30 32 35 36 36 35 34 34 33 28 22 19 19 20 19 19 19 18 18 18 17
33 33 32 32 29 28 34 40 40 39 37 34 31 30 29 27 26 26 26 29 32 32 32 33 35 37 36 35 35 34 30 24 20 20 21 20 20 20 19 19 19 18
33 33 32 32 32 32 37 41 39 39 38 34 32 30 28 27 26 26 29 32 33 34 32 31 34 37 36 36 36 34 31 26 20 20 21 20 21 21 20 20 20 19
34 34 33 34 35 38 42 42 39 38 37 35 34 30 26 24 24 26 30 34 35 36 34 31 33 38 38 37 37 35 33 27 20 20 21 20 20 21 20 20 20 20
35 34 32 34 39 43 43 39 36 36 36 34 32 29 26 25 24 23 27 30 32 36 36 33 34 38 39 38 38 37 35 27 20 19 20 19 19 20 19 19 20 21
36 34 33 37 42 41 36 33 33 34 35 35 33 30 28 26 24 22 23 25 28 33 35 36 36 38 40 39 38 39 36 28 21 20 20 18 18 18 18 19 20 22
34 33 35 38 39 35 31 31 33 33 35 37 36 31 26 24 24 24 24 23 26 30 34 36 37 39 41 40 40 41 38 28 21 20 20 19 19 19 18 18 19 23
31 33 36 36 33 30 28 28 29 31 35 37 33 27 24 24 25 26 25 23 22 27 32 35 37 41 42 42 41 42 39 29 22 21 21 21 20 19 19 19 18 21

ECMWFNIL_925_spd_135.txt.gz
Wind_Speed
28 26 26 27 26 26 26 27 26 27 28 28 27 27 26 26 26 26 25 24 23 21 20 20 19 19 18 18 19 19 17 17 17 17 16 16 15 14 14 14 14 14
30 27 27 27 27 27 29 29 27 27 28 29 28 27 26 26 26 26 26 25 23 21 21 21 20 19 18 18 19 19 18 16 16 15 14 14 14 13 14 14 14 14
33 29 28 28 28 29 30 29 28 27 28 29 29 28 27 26 27 27 26 25 23 22 22 22 21 20 19 18 19 19 18 17 16 15 14 14 15 15 16 15 15 16
34 30 28 29 29 30 29 29 29 28 27 28 30 29 27 27 28 27 26 26 24 23 23 23 22 21 20 19 19 19 18 17 16 15 14 14 15 16 17 17 17 17
33 29 29 29 29 30 29 29 30 30 28 28 29 29 28 28 29 28 27 27 26 24 23 23 23 23 21 20 20 19 18 17 16 15 15 15 16 17 17 17 17 17
31 30 30 30 31 31 30 30 30 30 29 28 29 30 29 29 29 28 28 28 26 25 24 24 24 23 23 22 21 20 19 18 17 17 17 17 16 16 17 17 18 18
29 30 31 32 33 32 32 32 31 30 30 28 30 31 29 29 29 29 29 29 27 26 25 24 24 24 24 23 22 21 20 20 19 19 19 18 17 17 17 17 17 17
29 29 30 31 33 33 33 33 31 31 30 29 30 31 29 29 30 30 30 30 28 28 28 26 25 25 25 24 23 22 21 21 21 20 20 18 18 18 17 16 16 16
30 30 30 31 33 34 33 33 32 31 30 29 30 30 29 30 31 31 31 31 29 29 29 27 26 25 25 25 25 24 23 22 21 21 20 19 18 17 17 16 16 16
32 30 30 31 33 34 35 35 32 31 31 31 31 30 29 30 31 31 31 31 30 30 30 28 27 26 26 25 26 26 25 23 21 20 18 18 17 16 16 16 16 16
33 31 30 31 32 34 35 35 34 32 32 32 32 31 31 31 31 32 32 32 32 32 31 29 28 27 26 26 27 26 25 24 21 19 17 16 16 16 16 16 16 16
32 31 31 32 33 34 35 35 34 32 30 32 32 32 32 32 32 32 32 32 32 32 32 31 29 28 27 27 28 26 25 23 20 17 17 16 16 16 16 16 16 17
32 32 32 33 33 34 34 33 33 32 32 33 33 31 32 33 33 33 32 32 32 32 32 32 30 29 28 28 28 27 25 22 19 17 17 17 16 16 16 17 17 17
32 32 33 33 32 33 34 33 33 35 34 33 32 31 32 34 33 32 31 31 33 32 32 32 30 29 29 29 28 27 24 21 19 18 17 16 16 16 17 17 17 17
31 31 31 31 30 32 34 33 33 34 33 31 32 32 32 33 33 32 30 31 33 33 32 32 31 30 30 31 28 26 23 21 20 19 17 16 16 17 17 17 18 17
31 31 30 31 31 32 35 35 34 33 32 31 32 34 33 33 32 31 31 31 33 33 32 31 31 31 33 32 30 26 24 22 21 19 18 18 17 17 18 18 18 17
31 31 30 31 32 33 35 36 34 32 32 31 32 34 33 32 32 30 30 31 32 34 33 30 29 31 34 34 32 29 26 24 22 21 20 19 18 18 18 18 19 17
31 31 31 32 33 33 34 35 33 32 32 31 31 33 33 32 31 30 29 30 31 33 32 29 28 31 35 36 34 32 29 25 22 21 21 19 18 19 19 19 19 18
30 31 32 32 32 33 35 35 33 32 34 33 32 34 33 31 32 31 30 30 31 32 30 26 27 33 36 37 35 34 32 26 22 21 21 19 19 20 19 19 20 19
31 31 32 32 32 33 34 35 35 35 36 34 34 35 33 33 33 31 29 30 31 32 29 25 29 36 38 38 37 36 34 29 22 20 20 20 20 20 20 20 20 20
32 32 32 32 33 33 34 35 36 36 35 34 35 35 34 33 33 30 29 30 31 31 28 25 30 37 39 39 38 37 36 32 24 20 20 19 19 20 20 20 20 20
33 33 32 32 32 33 33 35 37 36 35 34 36 35 31 29 31 32 31 30 31 31 27 25 31 37 38 40 40 38 38 35 26 21 20 19 19 20 20 19 20 20
33 33 32 32 32 33 35 36 37 37 35 35 37 36 31 29 32 34 32 29 31 33 28 25 32 38 39 40 41 40 39 36 27 20 20 19 19 20 20 19 20 21
33 33 33 33 33 34 35 36 37 37 36 36 37 34 30 32 36 33 30 31 34 34 29 27 33 39 39 40 42 42 42 38 28 21 20 19 18 19 20 19 20 22
32 33 32 33 33 33 35 36 35 34 35 37 36 31 29 33 35 30 28 32 34 33 30 28 33 39 40 40 43 43 43 39 29 21 20 20 19 20 20 18 19 22
30 31 31 32 32 32 34 34 33 33 36 36 33 30 30 33 33 30 31 33 33 32 29 26 31 39 40 40 43 44 44 39 28 21 21 21 20 20 19 19 18 20

ECMWFNIL_925_spd_141.txt.gz
Wind_Speed
41 40 39 39 39 37 37 38 37 36 37 38 39 40 40 40 39 39 39 38 36 36 35 33 31 32 31 31 32 32 32 32 32 32 33 33 32 30 30 29 28 27
40 40 39 38 38 37 37 39 40 38 37 39 40 39 38 38 39 39 40 38 37 36 36 34 32 31 32 32 31 32 33 31 31 32 33 33 32 31 30 30 29 28
40 40 39 38 38 39 39 39 40 40 39 38 38 38 38 38 39 40 40 39 38 37 36 36 33 32 33 34 32 32 33 32 32 32 33 33 32 31 31 30 29 28
40 39 39 39 39 40 40 37 38 40 39 38 39 39 38 38 39 40 40 40 38 37 36 37 36 33 32 34 34 32 33 33 32 33 33 33 32 32 31 29 29 28
41 39 39 40 39 38 38 37 37 39 40 41 40 40 39 38 38 40 41 40 39 37 37 37 37 35 33 34 35 34 33 33 32 33 34 34 33 32 31 29 28 26
39 39 39 40 40 38 37 37 38 40 41 41 40 40 40 39 39 40 41 41 40 37 37 37 37 37 35 34 35 35 35 34 34 34 34 34 33 32 31 29 28 26
37 38 38 39 40 39 38 37 38 40 41 41 40 40 41 40 40 40 41 41 40 38 37 37 37 37 36 35 35 35 35 35 35 35 35 34 33 32 30 29 28 27
37 37 37 38 39 39 39 38 37 39 41 40 40 40 41 42 42 41 40 40 40 39 38 37 37 38 37 36 36 35 35 35 36 36 35 34 33 32 31 30 29 28
35 36 37 37 37 38 40 40 39 39 40 40 41 41 41 42 42 41 40 39 39 40 39 37 37 38 38 37 37 36 36 36 36 37 36 35 34 34 33 32 30 28
34 35 36 37 37 38 39 41 41 40 40 40 41 41 41 41 41 41 40 39 40 40 40 39 38 38 38 38 38 38 37 37 36 36 36 37 36 36 35 33 31 29
34 35 36 38 39 39 39 41 42 42 41 40 41 41 41 41 41 41 40 40 42 42 41 40 39 38 38 39 39 38 38 37 37 37 36 37 37 37 36 34 32 31
37 37 38 39 40 40 40 41 42 43 42 41 41 41 41 41 41 42 42 42 43 43 41 41 40 39 39 39 39 39 38 37 37 38 37 37 37 37 36 35 33 32
39 40 40 40 40 41 41 42 42 42 41 41 41 41 41 41 41 42 43 44 44 43 42 42 41 39 39 39 39 39 39 38 38 38 38 37 37 36 35 35 34 33
42 43 43 42 42 42 43 43 43 41 40 40 41 41 42 42 43 43 43 43 43 42 42 42 41 41 41 40 40 40 40 39 38 38 38 37 36 36 35 34 33 33
42 43 42 41 41 41 42 44 43 41 41 41 40 41 42 43 44 44 43 41 42 42 41 41 42 43 43 43 41 41 41 40 39 39 39 37 36 35 36 35 34 33
39 41 40 38 37 39 41 42 42 41 41 40 41 42 43 43 43 43 42 42 42 42 41 42 44 45 46 45 44 42 41 40 39 39 39 38 36 35 35 35 35 34
38 39 39 38 37 38 39 40 40 40 40 40 41 42 42 42 42 42 43 44 44 43 42 43 45 47 47 46 45 45 44 41 40 39 39 39 37 35 35 35 34 34
39 39 38 38 38 38 38 39 38 38 39 40 41 42 42 42 42 43 43 44 44 43 43 44 46 47 47 46 46 47 46 44 41 40 38 38 38 37 36 35 34 32
38 38 37 37 37 38 39 38 38 38 39 40 41 42 42 42 42 44 44 44 44 43 44 46 46 47 47 47 46 47 48 46 42 41 40 39 39 38 37 36 35 33
39 39 39 38 37 37 38 37 38 38 39 40 42 42 42 42 42 43 44 44 44 44 45 46 47 47 48 49 47 47 50 48 43 42 41 40 39 39 38 37 37 36
33 35 38 40 39 38 38 38 38 39 39 40 40 41 42 43 43 44 44 45 45 45 45 44 46 47 48 49 49 48 51 49 44 42 42 40 40 40 39 39 39 38
27 29 31 34 37 38 38 38 38 38 39 40 40 41 42 43 43 44 44 45 46 46 44 43 45 46 47 49 49 49 51 50 44 42 42 41 40 40 39 40 40 39
27 32 33 32 32 34 37 39 40 39 39 40 39 39 40 41 42 43 44 45 46 45 44 44 45 46 47 49 49 50 51 49 44 42 41 40 41 40 39 39 39 40
25 33 38 37 33 32 34 36 37 38 39 40 41 40 40 42 42 42 43 45 46 47 47 46 45 46 48 49 49 51 53 50 44 40 39 39 39 39 39 39 39 40
25 28 36 41 40 36 36 37 38 39 38 39 40 41 41 41 41 41 41 43 45 48 49 47 45 45 47 48 49 51 53 50 44 40 38 38 37 37 37 38 39 40
30 25 26 36 42 43 42 39 38 38 39 39 39 40 40 39 40 40 40 41 42 45 46 46 44 44 46 49 50 51 54 51 45 42 40 38 37 36 35 36 38 39

ECMWFNIL_925_spd_144.txt.gz
Wind_Speed
45 43 43 43 43 41 41 40 39 39 40 41 42 43 44 44 43 44 45 44 43 43 42 40 40 40 39 38 38 37 37 37 37 37 36 36 36 35 35 36 35 34
46 44 42 42 42 41 40 40 41 41 41 43 44 43 41 41 42 43 44 44 43 43 42 41 40 40 40 39 39 38 38 38 38 37 37 37 37 36 36 36 36 35
47 44 43 42 42 42 42 42 42 41 41 42 43 42 41 40 41 43 44 43 43 42 42 42 41 40 40 40 39 39 39 38 38 38 37 37 37 37 37 37 36 36
46 44 43 43 43 43 44 43 42 41 40 40 41 42 41 40 40 42 43 43 43 42 42 42 42 41 41 40 40 40 39 39 39 38 37 37 38 38 37 36 36 36
47 45 44 44 43 43 42 40 41 41 40 41 42 41 41 40 40 41 42 43 43 42 41 41 41 42 41 40 40 40 40 39 39 38 38 38 38 38 37 36 36 36
46 45 45 44 43 42 41 40 42 42 42 41 40 40 41 40 40 41 42 43 43 43 42 41 41 41 41 41 40 40 40 40 39 39 39 38 38 38 37 36 36 36
45 45 44 44 44 43 42 42 42 42 43 42 40 39 40 40 40 41 42 43 42 42 42 42 42 41 41 41 41 40 39 39 39 39 39 38 37 37 37 37 37 37
44 44 45 44 43 43 43 42 42 42 42 41 40 39 39 40 41 42 41 41 42 42 42 42 42 42 41 41 42 41 40 39 39 39 40 38 37 37 38 37 37 37
42 41 42 43 42 42 42 42 41 41 41 41 41 41 40 40 41 41 41 41 41 41 42 41 42 42 42 43 43 42 41 40 40 40 40 39 38 38 38 37 36 37
35 38 39 40 41 41 41 40 39 39 40 40 41 40 39 40 40 40 39 39 40 41 41 42 43 43 43 43 43 42 41 41 40 41 41 41 40 40 39 38 38 38
31 34 36 38 39 40 40 40 40 40 40 40 40 39 38 39 38 38 39 39 40 42 42 43 44 43 43 43 43 42 41 41 41 41 41 41 41 41 40 39 39 39
32 32 33 36 38 38 39 40 40 41 41 41 40 39 38 38 38 39 40 40 42 43 43 43 43 43 42 42 43 42 41 41 41 41 41 41 41 41 41 41 40 40
33 36 37 38 39 39 39 39 40 41 42 41 40 39 38 38 39 39 40 42 43 42 42 42 42 41 41 41 41 42 42 41 41 41 41 41 41 41 41 41 41 40
31 37 42 41 41 41 40 40 41 42 42 41 38 37 38 39 40 40 41 42 42 42 42 42 40 40 40 41 42 42 42 42 42 41 40 40 40 40 40 41 41 40
31 37 42 42 41 40 39 40 41 40 40 39 38 38 39 40 40 40 41 41 42 42 42 40 40 41 42 43 43 42 42 42 41 40 40 39 39 39 39 41 41 40
35 38 40 39 37 37 37 38 38 38 38 38 38 39 40 39 39 39 40 40 41 42 41 40 40 42 45 46 45 44 43 41 40 40 40 39 38 37 38 40 40 41
36 40 41 38 35 34 35 35 36 36 36 37 38 40 40 40 39 39 40 41 42 42 41 41 42 44 47 48 47 46 44 41 40 39 39 39 38 38 38 39 39 40
33 38 38 36 33 33 34 35 35 35 35 36 37 39 39 39 39 40 41 42 42 42 42 42 44 46 48 48 48 48 47 44 41 39 38 38 39 39 38 38 38 39
28 32 32 31 31 33 34 34 34 34 35 36 37 39 39 39 39 41 42 42 42 41 42 44 45 47 48 48 49 49 49 46 42 39 38 38 38 39 38 38 38 38
18 25 29 31 32 32 32 33 33 35 37 37 37 37 37 38 40 41 41 42 43 43 43 44 46 47 47 48 49 49 49 49 45 40 38 38 39 39 39 39 39 39
10 15 22 28 31 31 29 30 31 33 35 36 37 38 39 40 41 42 43 44 44 43 43 44 46 47 47 47 49 49 49 49 46 41 38 39 39 40 41 41 41 40
10 12 15 20 26 29 29 29 29 29 29 29 31 34 38 41 42 42 43 44 44 44 43 44 46 47 47 47 48 48 47 48 46 42 39 38 39 40 41 42 42 41
15 15 15 17 21 25 28 31 32 33 34 33 31 31 32 35 39 42 43 43 43 44 44 43 44 45 46 47 47 46 46 46 45 42 40 39 39 39 41 42 42 42
18 18 17 19 21 24 27 30 32 35 38 39 37 35 35 35 35 36 39 43 44 45 44 44 44 45 45 46 46 45 45 46 44 41 39 38 38 38 40 42 43 43
18 19 19 20 23 25 26 29 31 33 35 38 39 39 39 39 36 33 34 37 40 43 44 44 43 42 42 43 44 45 45 45 43 40 38 38 37 36 37 39 41 42
19 20 21 22 24 27 28 30 31 31 32 35 38 38 38 40 39 36 34 35 36 38 41 43 43 41 40 41 43 43 45 45 42 39 38 38 36 35 35 35 37 39